World > North America > United States > South Carolina > Cornwell  

Cornwell, SC Hourly Weather Updates

Feedback E-mail the Weather

Quick Clicks

Cornwell, SC Weather Maps

°F °C°F °C
Cornwell Weather Map
UTC Time: 5/18/2024, 16:27
Your Time:

Cornwell, SC Regional Weather

Expires:202405181700;;430881
ASUS42 KCAE 181610
RWRCAE
REGIONAL WEATHER ROUNDUP
NATIONAL WEATHER SERVICE COLUMBIA SC
1200 PM EDT SAT MAY 18 2024

NOTE: "FAIR" INDICATES FEW OR NO CLOUDS BELOW 12,000 FEET WITH NO
SIGNIFICANT WEATHER AND/OR OBSTRUCTIONS TO VISIBILITY.

NOT ALL STATIONS ARE QUALITY CONTROLLED BY THE NATIONAL 
WEATHER SERVICE. USE DATA WITH CAUTION...ESPECIALLY 
DEWPOINT OBSERVATIONS.


SCZ001>059-115-116-135>137-GAZ040-063>065-077-181700-
...UPSTATE SOUTH CAROLINA...
  
CITY           SKY/WX    TMP DP  RH WIND       PRES   REMARKS
ANDERSON       PTSUNNY   75  68  78 S8        29.92S                  
LIBERTY        CLOUDY    73  70  91 S3        29.92F                  
SPARTANBURG    CLOUDY    72  64  78 SW6       29.91F                  
CLEMSON        CLOUDY    73  69  87 VRB7      29.92F                  
GREENVILLE     CLOUDY    73  66  78 SW9       29.93S                  
GREENWOOD      CLOUDY    71  68  90 SW7       29.95R                  
GREER          CLOUDY    75  66  73 SW10      29.93S                  
ROCK HILL      CLOUDY    75  69  81 W6        29.91F                  
CHESTER        CLOUDY    72  68  88 S3        29.92F                  
LAURENS        CLOUDY    72  68  88 SW5       29.93F                  


...CENTRAL SOUTH CAROLINA...
  
CITY           SKY/WX    TMP DP  RH WIND       PRES   REMARKS
COLUMBIA APT   CLOUDY    75  69  81 SW5       29.91F                  
COLUMBIA OWENS CLOUDY    74  68  81 SW3       29.93S                  
MCENTIRE ANGB  CLOUDY    75  69  81 SW5       29.90S                  
ORANGEBURG     CLOUDY    76  72  87 S6        29.93S                  
SUMTER SHAW    CLOUDY    74  70  85 S3        29.90S                  
BARNWELL       CLOUDY    73  72  94 S6        29.93F                  
MANNING        CLOUDY    73  70  88 W5        29.94S                  
CAMDEN         LGT RAIN  72  70  94 CALM      29.93F                  
LANCASTER      CLOUDY    75  70  83 S6        29.91S                  
WINNSBORO      CLOUDY    70  68  94 S6        29.92F                  


...EASTERN AND COASTAL SOUTH CAROLINA...
  
CITY           SKY/WX    TMP DP  RH WIND       PRES   REMARKS
MYRTLE BEACH   CLOUDY    77  76  96 S7        29.94S                  
N MYRTLE BCH   CLOUDY    78  72  81 SW6       29.93R                  
CONWAY         LGT RAIN  75  72  88 SW3       29.94S                  
MARION         HVY RAIN  72  72 100 S3        29.94S                  
HARTSVILLE     CLOUDY    73  68  83 VRB7      29.93R                  
FLORENCE       CLOUDY    74  71  91 W9        29.94R                  
DARLINGTON       N/A     76  71  85 SW13      29.92S                  
CHARLESTON APT LGT RAIN  75  71  87 W7        29.96R FOG              
MOUNT PLEASANT RAIN      75  75 100 SW6       29.97R                  
WALTERBORO     CLOUDY    72  72 100 S8        29.97F                  
BEAUFORT       LGT RAIN  74  71  91 W6        29.97S                  
HILTON HEAD    MOSUNNY   73  72  94 VRB6      29.97F                  


...EASTERN GEORGIA...
  
CITY           SKY/WX    TMP DP  RH WIND       PRES   REMARKS
AUGUSTA BUSH F CLOUDY    74  69  85 CALM      29.91R                  
AUGUSTA DANIEL CLOUDY    74  68  81 CALM      29.94S                  
THOMSON        CLOUDY    73  69  86 CALM      29.94S                  
WASHINGTON     CLOUDY    73  69  87 SW8       29.93F                  
CLAXTON        TSTM      73  71  94 CALM      29.96F                  
SYLVANIA       LGT RAIN  71  70  98 S7        29.95F                  
STATESBORO     RAIN      70  68  93 S13       29.95F                  
SAVANNAH       LGT RAIN  73  69  87 N3        29.96F                  


...SOUTHERN NORTH CAROLINA...
  
CITY           SKY/WX    TMP DP  RH WIND       PRES   REMARKS
CHARLOTTE      PTSUNNY   75  66  73 SW7       29.92R                  
MONROE         CLOUDY    77  68  73 SW5       29.90S                  
WADESBORO      CLOUDY    78  68  70 W3        29.90S                  
ROCKINGHAM     PTSUNNY   78  68  70 SW8       29.90F                  
RUTHERFORDTON  PTSUNNY   73  64  73 S6        29.92F                  
ASHEVILLE      PTSUNNY   74  64  71 CALM      29.94F                  

$$
  

SKY/WX - Weather  TMP - Temperature  DP - Dew Point  RH - Humidity
WIND - Wind Direction/Speed PRES - Barometric Pressure VSB - Visibility
WCI - Wind Chill Index E13G22 Wind - East Wind 13 mph/Gusts of 22 mph

Trending Headlines

Trending Entertainment Headlines

Cornwell Radar Loop

Use the map search tool if you want to place a location marker on the radar map...

Cornwell Quick Facts

National Two Day Weather Forecast


E-mail the Cornwell Weather Forecast

Voice your opinion or tell us about page issues...